カタログに戻る

COSMOS 2251 DEB

運用中LEO
NORAD 34814·DEBRIS·🇷🇺 Russia

打ち上げ Jun 16, 1993 から Plesetsk Cosmodrome

Loading…

次のパス (今後24時間)

TLE

最新Source: Space-Track

元期: Sep 14, 2026, 05:25 UTC

1 34814U 93036ABD 26257.22595990  .00001366  00000-0  45383-3 0  9996
2 34814  73.8949 174.0852 0052953   2.5967 149.3777 14.37920426912910

AllMySatでCOSMOS 2251 DEBをリアルタイム追跡

Download on the App Store